Location: Curicchi
(45.0167°N, 12.0500°E)
Time: 17:46:43
(UTC+00:00)

STARLINK-80 - Pass Details

Date: 07 June 2020
Orbit: 487 x 491 km, 53.0° (Epoch: 07 July)

Event Time Altitude Azimuth Distance (km) Brightness Sun altitude
Exits shadow 00:21:13 54° 262° (W) 600 3.6 -20.3°
Maximum altitude 00:21:56 74° 328° (NNW) 515 3.4 -20.3°
Drops below altitude 10° 00:25:45 10° 55° (NE) 1,688 6.8 -20.1°
Sets 00:27:56 0° 57° (ENE) 2,572 7.9 -20.0°
